Flag for Netherlands Weather past 2 weeks in Tilburg, Netherlands

Now
39 °F

Fog.


Feels Like: 35 °F
Forecast: 47 / 54 °F
Wind: 6 mph from Southwest

Location: Gilze-Rijen

Current Time: Dec 21, 2014 at 7:28:11 AM

Latest Report: Dec 21, 2014 at 6:55 AM


Visibility: 5 mi

Pressure: 30.39 "Hg

Humidity: 100%

Dew point: 39 °F

Location of TilburgLocation

Historic Weather in Tilburg — Graph

°F

Tilburg temperature yesterday

Maximum temperature yesterday: 48 °F (at 12:55 PM)
Minimum temperature yesterday: 41 °F (at 1:55 AM)
Average temperature yesterday: 45 °F

Past Weeks' High & Low Weather Summary

 TemperatureHumidityPressure
High55 °F (Dec 18, 1:55 PM)100% (Dec 6, 6:25 AM)30.39 "Hg (Dec 6, 6:25 AM)
Low28 °F (Dec 9, 7:55 AM)62% (Dec 10, 3:55 PM)29.36 "Hg (Dec 12, 10:25 AM)
Average42 °F90%29.94 "Hg
* Reported Dec 6 6:25 AM — Dec 21 6:25 AM, Tilburg, Weather by CustomWeather, © 2014

Note: Actual official high and low records may vary slightly from our data, if they occured in-between our weather recording intervals... More about our weather records

Advertising

Tilburg weather history for previous 24 hours

 ConditionsComfort  
Time TempWeatherWind HumidityBarometerVisibility
6:25 AM
Dec 21
39 °FFog.7 mph100%30.39 "Hg6 mi
6:02 AM39 °FFog.7 mph100%30.39 "Hg6 mi
5:55 AM39 °FFog.6 mph100%30.36 "Hg6 mi
5:25 AM41 °FPassing clouds.7 mph93%30.39 "HgN/A
4:55 AM41 °FPassing clouds.6 mph93%30.39 "HgN/A
4:25 AM41 °FPassing clouds.6 mph93%30.39 "HgN/A
4:03 AM41 °FPassing clouds.6 mph93%30.39 "HgN/A
3:55 AM41 °FPassing clouds.7 mph93%30.39 "HgN/A
3:25 AM41 °FOvercast.7 mph93%30.39 "HgN/A
2:55 AM41 °FPassing clouds.6 mph93%30.39 "HgN/A
2:25 AM39 °FOvercast.6 mph93%30.39 "HgN/A
1:55 AM41 °FPassing clouds.6 mph93%30.36 "HgN/A
1:25 AM41 °FOvercast.6 mph93%30.36 "HgN/A
12:55 AM41 °FPassing clouds.6 mph93%30.36 "HgN/A
12:25 AM43 °FPartly cloudy.7 mph87%30.36 "HgN/A
11:55 PM
Dec 20
41 °FPartly cloudy.6 mph93%30.36 "HgN/A
11:25 PM43 °FPassing clouds.7 mph87%30.33 "HgN/A
11:03 PM43 °FRain showers. Mostly cloudy.16 mph93%30.33 "Hg5 mi
10:25 PM45 °FMostly cloudy.9 mph81%30.30 "HgN/A
9:55 PM45 °FPartly cloudy.10 mph81%30.30 "HgN/A
9:25 PM45 °FPassing clouds.12 mph81%30.30 "HgN/A
8:55 PM45 °FPassing clouds.13 mph81%30.27 "HgN/A
8:25 PM45 °FPassing clouds.10 mph81%30.27 "HgN/A
7:55 PM45 °FPassing clouds.12 mph76%30.24 "HgN/A
7:25 PM45 °FPassing clouds.13 mph81%30.24 "HgN/A
6:55 PM46 °FOvercast.7 mph76%30.21 "HgN/A
6:25 PM46 °FLight rain. Passing clouds.16 mph76%30.21 "HgN/A
5:55 PM46 °FPartly cloudy.15 mph76%30.18 "HgN/A
5:25 PM46 °FPartly cloudy.18 mph76%30.18 "HgN/A
4:55 PM46 °FLight rain. Partly cloudy.18 mph76%30.15 "HgN/A
4:25 PM46 °FBroken clouds.17 mph76%30.15 "HgN/A
3:55 PM46 °FBroken clouds.18 mph76%30.12 "HgN/A
3:25 PM48 °FPartly sunny.21 mph71%30.12 "HgN/A
2:59 PM48 °FMore clouds than sun.22 mph71%30.12 "HgN/A
2:55 PM48 °FMore clouds than sun.24 mph71%30.12 "HgN/A
2:25 PM48 °FScattered clouds.21 mph71%30.12 "HgN/A
1:55 PM48 °FBroken clouds.21 mph71%30.09 "HgN/A
1:25 PM48 °FMostly cloudy.21 mph71%30.09 "HgN/A
12:55 PM48 °FCloudy.17 mph71%30.12 "HgN/A
12:25 PM46 °FBroken clouds.20 mph76%30.09 "HgN/A
11:55 AM46 °FOvercast.17 mph76%30.12 "HgN/A
11:25 AM46 °FMostly cloudy.16 mph76%30.12 "HgN/A
10:55 AM46 °FMostly cloudy.15 mph76%30.12 "HgN/A
10:25 AM45 °FMostly cloudy.14 mph81%30.12 "HgN/A
9:55 AM43 °FPassing clouds.12 mph87%30.09 "HgN/A
9:25 AM45 °FPartly sunny.12 mph81%30.12 "HgN/A
8:59 AM45 °FScattered clouds.12 mph81%30.12 "HgN/A
8:25 AM43 °FPassing clouds.10 mph87%30.12 "HgN/A
7:55 AM43 °FPassing clouds.12 mph87%30.12 "HgN/A
7:25 AM43 °FPassing clouds.13 mph87%30.12 "HgN/A
Weather by CustomWeather, © 2014

See weather overviewHow to use our weather pages